CENTISPACE-1 S13 (62582 NORAD) Tracking and Keplerian Element Data

This shows tracking and keplerian element data for the satellite.

Feedback or suggestion? Click here.




ElementValue
Catalog62582
NameCENTISPACE-1 S13
Epoch Orbit326
Epoch Day35.24379505
Epoch Year2025
RAAN37.8078
Inclination54.9841
Eccentricity0.0016022
Argument of Perigee352.956
Mean Anonmoly7.1213
Mean Motion14.77129423
Decay Rate3.916E-05
L11 62582U 25007H 25035.24379505 .00003916 00000+0 57824-3 0 9994
L22 62582 54.9841 37.8078 0016022 352.9560 7.1213 14.77129423 3265



Live tracking and technical data element details for CENTISPACE-1 S13 (NORAD 62582). CENTISPACE-1 S13 can be tracked NOW for your location showing map with azimuth and elevation plus other details from your city location.







IsCatalogInMostPopularTable: catalog: 62582, numindb: 11
Update: records affected: 1



GetName: 62582 CENTISPACE-1 S13

Hit Count: updated at: Sat, 24 May 2025 16:33:24 GMT